PWSweather.com
Personal Weather Stations
Station Observations
KNJOAKLA6
Oakland, NJ 07436

Oakland, NJ 07436

Lat: 41.041, Lon: -74.231

Elevation: 280

Station Type: Davis VP 2

http://stratacolorado.com/oaknjwx/

Latest ConditionsUpdated 3:20:00 AM EST Friday, Nov 21, 2014
Currently Today's Max Today's Min Today's Average
Temperature 25.4°F-3.7°C 27.6°F-2.4°C 25.3°F-3.7°C 26.2°F-3.2°C
Dew Point 11.1°F-11.6°C 11.4°F-11.4°C 10.3°F-12.1°C 10.8°F-11.8°C
Winds 2.0 mph SW3.2 kmh SW 4.0 mph WNW6.4 kmh WNW - 1.9 mph 3.1 kmh
Wind Gusts 13.0 mph20.9 kmh 13.0 mph20.9 kmh - -
Humidity 54% 54% 49% 52%
Pressure 30.06 in1017.9 mb 30.06 in1017.9 mb 30.02 in1016.6 mb -
Hour Temp Dew Point Humidity Winds Wind Gusts Pressure Precip Precip Rate Daily Precip Total
03:20 AM 25.4°F-3.7°C 11.1°F-11.6°C 54% 2.0 mph SW3.2 kmh SW 13.0 mph20.9 kmh 30.06 in1017.9 mb 0.00 in0.0 mm 0.00 in/hr0.0 mm/hr 0.00 in0.0 mm
03:10 AM 25.3°F-3.7°C 11.0°F-11.7°C 54% 2.0 mph WSW3.2 kmh WSW 12.0 mph19.3 kmh 30.06 in1017.9 mb 0.00 in0.0 mm 0.00 in/hr0.0 mm/hr 0.00 in0.0 mm
03:00 AM 25.3°F-3.7°C 11.0°F-11.7°C 54% 4.0 mph SW6.4 kmh SW 11.0 mph17.7 kmh 30.06 in1017.9 mb 0.00 in0.0 mm 0.00 in/hr0.0 mm/hr 0.00 in0.0 mm
02:50 AM 25.4°F-3.7°C 10.6°F-11.9°C 53% 3.0 mph WSW4.8 kmh WSW 10.0 mph16.1 kmh 30.06 in1017.9 mb 0.00 in0.0 mm 0.00 in/hr0.0 mm/hr 0.00 in0.0 mm
02:40 AM 25.5°F-3.6°C 10.7°F-11.8°C 53% 2.0 mph W3.2 kmh W 5.0 mph8.0 kmh 30.06 in1017.9 mb 0.00 in0.0 mm 0.00 in/hr0.0 mm/hr 0.00 in0.0 mm
02:30 AM 25.6°F-3.6°C 10.8°F-11.8°C 53% 3.0 mph W4.8 kmh W 7.0 mph11.3 kmh 30.05 in1017.6 mb 0.00 in0.0 mm 0.00 in/hr0.0 mm/hr 0.00 in0.0 mm
02:20 AM 25.7°F-3.5°C 10.9°F-11.7°C 53% 1.0 mph W1.6 kmh W 7.0 mph11.3 kmh 30.05 in1017.6 mb 0.00 in0.0 mm 0.00 in/hr0.0 mm/hr 0.00 in0.0 mm
02:10 AM 25.7°F-3.5°C 10.9°F-11.7°C 53% 4.0 mph W6.4 kmh W 9.0 mph14.5 kmh 30.05 in1017.6 mb 0.00 in0.0 mm 0.00 in/hr0.0 mm/hr 0.00 in0.0 mm
02:00 AM 25.7°F-3.5°C 10.5°F-11.9°C 52% 2.0 mph W3.2 kmh W 7.0 mph11.3 kmh 30.04 in1017.3 mb 0.00 in0.0 mm 0.00 in/hr0.0 mm/hr 0.00 in0.0 mm
01:50 AM 25.9°F-3.4°C 10.7°F-11.8°C 52% 1.0 mph WNW1.6 kmh WNW 6.0 mph9.7 kmh 30.04 in1017.3 mb 0.00 in0.0 mm 0.00 in/hr0.0 mm/hr 0.00 in0.0 mm
01:41 AM 26.0°F-3.3°C 10.8°F-11.8°C 52% 1.0 mph NW1.6 kmh NW 12.0 mph19.3 kmh 30.03 in1016.9 mb 0.00 in0.0 mm 0.00 in/hr0.0 mm/hr 0.00 in0.0 mm
01:30 AM 26.2°F-3.2°C 10.5°F-11.9°C 51% 3.0 mph WSW4.8 kmh WSW 6.0 mph9.7 kmh 30.03 in1016.9 mb 0.00 in0.0 mm 0.00 in/hr0.0 mm/hr 0.00 in0.0 mm
01:20 AM 26.3°F-3.2°C 10.6°F-11.9°C 51% 1.0 mph WNW1.6 kmh WNW 5.0 mph8.0 kmh 30.03 in1016.9 mb 0.00 in0.0 mm 0.00 in/hr0.0 mm/hr 0.00 in0.0 mm
01:10 AM 26.4°F-3.1°C 10.3°F-12.1°C 50% 4.0 mph WNW6.4 kmh WNW 10.0 mph16.1 kmh 30.03 in1016.9 mb 0.00 in0.0 mm 0.00 in/hr0.0 mm/hr 0.00 in0.0 mm
01:00 AM 26.5°F-3.1°C 10.4°F-12.0°C 50% Calm Calm 9.0 mph14.5 kmh 30.03 in1016.9 mb 0.00 in0.0 mm 0.00 in/hr0.0 mm/hr 0.00 in0.0 mm
12:50 AM 26.6°F-3.0°C 10.5°F-11.9°C 50% 1.0 mph WNW1.6 kmh WNW 6.0 mph9.7 kmh 30.02 in1016.6 mb 0.00 in0.0 mm 0.00 in/hr0.0 mm/hr 0.00 in0.0 mm
12:40 AM 26.8°F-2.9°C 10.6°F-11.9°C 50% 2.0 mph W3.2 kmh W 9.0 mph14.5 kmh 30.03 in1016.9 mb 0.00 in0.0 mm 0.00 in/hr0.0 mm/hr 0.00 in0.0 mm
12:30 AM 27.0°F-2.8°C 10.8°F-11.8°C 50% 1.0 mph W1.6 kmh W 10.0 mph16.1 kmh 30.03 in1016.9 mb 0.00 in0.0 mm 0.00 in/hr0.0 mm/hr 0.00 in0.0 mm
12:20 AM 27.2°F-2.7°C 11.0°F-11.7°C 50% 1.0 mph SW1.6 kmh SW 9.0 mph14.5 kmh 30.03 in1016.9 mb 0.00 in0.0 mm 0.00 in/hr0.0 mm/hr 0.00 in0.0 mm
12:10 AM 27.4°F-2.6°C 10.7°F-11.8°C 49% Calm Calm 9.0 mph14.5 kmh 30.02 in1016.6 mb 0.00 in0.0 mm 0.00 in/hr0.0 mm/hr 0.00 in0.0 mm
12:00 AM 27.6°F-2.4°C 11.4°F-11.4°C 50% 2.0 mph W3.2 kmh W 10.0 mph16.1 kmh 30.02 in1016.6 mb 0.00 in0.0 mm 0.00 in/hr0.0 mm/hr 0.00 in0.0 mm